| time (UTC) | temp F | wind direction | speed knots | gust knots | rain 1hr in | rain 24hr in | rain mn in | humidity % | barometer mb |
| 20260506103051 | 54 | 9 | 3.5 | 5.2 | 0.00 | 0.00 | 0.00 | 78 | 1008.0 |
| 20260506101541 | 54 | 360 | 3.5 | 5.2 | 0.00 | 0.00 | 0.00 | 78 | 1008.3 |
| 20260506100039 | 54 | 5 | 3.5 | 5.2 | 0.00 | 0.00 | 0.00 | 78 | 1008.0 |
| 20260506094539 | 55 | 355 | 3.5 | 7.8 | 0.00 | 0.00 | 0.00 | 77 | 1008.2 |
| 20260506093033 | 55 | 360 | 2.6 | 4.3 | 0.00 | 0.00 | 0.00 | 77 | 1008.3 |
| 20260506091531 | 56 | 355 | 4.3 | 7.0 | 0.00 | 0.00 | 0.00 | 76 | 1008.0 |
| 20260506090029 | 57 | 40 | 3.5 | 6.1 | 0.00 | 0.00 | 0.00 | 75 | 1007.9 |
| 20260506084524 | 57 | 60 | 2.6 | 5.2 | 0.00 | 0.00 | 0.00 | 74 | 1008.0 |
| 20260506083021 | 58 | 63 | 3.5 | 5.2 | 0.00 | 0.00 | 0.00 | 73 | 1007.9 |
| 20260506081520 | 59 | 57 | 2.6 | 5.2 | 0.00 | 0.00 | 0.00 | 72 | 1007.9 |
| 20260506073009 | 61 | 63 | 4.3 | 9.6 | 0.00 | 0.00 | 0.00 | 68 | 1007.6 |
| 20260506071507 | 62 | 71 | 5.2 | 10.4 | 0.00 | 0.00 | 0.00 | 67 | 1007.3 |
| 20260506061550 | 68 | 78 | 6.1 | 10.4 | 0.00 | 0.00 | 0.00 | 62 | 1006.4 |
| 20260506044531 | 71 | 132 | 1.7 | 6.1 | 0.00 | 0.00 | 0.00 | 57 | 1005.8 |
| 20260506043030 | 71 | 69 | 1.7 | 4.3 | 0.00 | 0.00 | 0.00 | 55 | 1005.6 |
| 20260506041529 | 72 | 63 | 2.6 | 3.5 | 0.00 | 0.00 | 0.00 | 53 | 1005.4 |
| 20260506040029 | 71 | 62 | 2.6 | 5.2 | 0.00 | 0.00 | 0.00 | 52 | 1005.2 |
| 20260506034530 | 71 | 5 | 1.7 | 7.0 | 0.00 | 0.00 | 0.00 | 54 | 1005.0 |
| 20260506033025 | 71 | 267 | 0.0 | 3.5 | 0.00 | 0.00 | 0.00 | 50 | 1005.1 |
| 20260506031525 | 72 | 266 | 1.7 | 2.6 | 0.00 | 0.00 | 0.00 | 52 | 1004.8 |
| 20260506030035 | 73 | 266 | 0.0 | 1.7 | 0.00 | 0.00 | 0.00 | 47 | 1004.9 |
| 20260506024546 | 74 | 266 | 0.0 | 2.6 | 0.00 | 0.00 | 0.00 | 41 | 1004.7 |
| 20260506023021 | 76 | 266 | 0.9 | 2.6 | 0.00 | 0.00 | 0.00 | 41 | 1004.4 |
| 20260506021521 | 77 | 267 | 2.6 | 5.2 | 0.00 | 0.00 | 0.00 | 35 | 1004.2 |
| 20260506020019 | 78 | 267 | 3.5 | 5.2 | 0.00 | 0.00 | 0.00 | 33 | 1004.1 |
| 20260506014519 | 80 | 267 | 2.6 | 5.2 | 0.00 | 0.00 | 0.00 | 29 | 1003.9 |
| 20260506013033 | 81 | 260 | 3.5 | 6.1 | 0.00 | 0.00 | 0.00 | 27 | 1003.6 |
| 20260506011519 | 82 | 246 | 5.2 | 10.4 | 0.00 | 0.00 | 0.00 | 26 | 1003.5 |
| 20260506010021 | 81 | 258 | 6.1 | 9.6 | 0.00 | 0.00 | 0.00 | 32 | 1003.4 |
| 20260506004516 | 82 | 263 | 4.3 | 7.0 | 0.00 | 0.00 | 0.00 | 32 | 1003.3 |
| 20260506003018 | 83 | 310 | 2.6 | 7.0 | 0.00 | 0.00 | 0.00 | 29 | 1003.1 |
| 20260506001520 | 84 | 304 | 2.6 | 7.0 | 0.00 | 0.00 | 0.00 | 29 | 1003.0 |
| 20260506000015 | 85 | 325 | 5.2 | 10.4 | 0.00 | 0.00 | 0.00 | 26 | 1002.7 |
| 20260505234515 | 86 | 305 | 8.7 | 13.9 | 0.00 | 0.00 | 0.00 | 26 | 1002.7 |
| 20260505233019 | 87 | 283 | 7.8 | 11.3 | 0.00 | 0.00 | 0.00 | 27 | 1002.4 |
| 20260505231514 | 87 | 277 | 3.5 | 9.6 | 0.00 | 0.00 | 0.00 | 27 | 1002.4 |
| 20260505230032 | 88 | 280 | 7.0 | 12.2 | 0.00 | 0.00 | 0.00 | 26 | 1002.4 |
| 20260505224513 | 88 | 279 | 7.8 | 16.5 | 0.00 | 0.00 | 0.00 | 25 | 1002.3 |
| 20260505223011 | 88 | 286 | 8.7 | 15.6 | 0.00 | 0.00 | 0.00 | 24 | 1002.1 |
| 20260505221511 | 89 | 269 | 9.6 | 14.8 | 0.00 | 0.00 | 0.00 | 25 | 1002.3 |
| 20260505220009 | 89 | 256 | 10.4 | 20.9 | 0.00 | 0.00 | 0.00 | 25 | 1002.4 |
| 20260505214511 | 90 | 244 | 7.0 | 15.6 | 0.00 | 0.00 | 0.00 | 25 | 1002.3 |
| 20260505213009 | 91 | 249 | 8.7 | 17.4 | 0.00 | 0.00 | 0.00 | 25 | 1002.2 |
| 20260505211508 | 90 | 259 | 10.4 | 17.4 | 0.00 | 0.00 | 0.00 | 24 | 1002.4 |
| 20260505210007 | 90 | 244 | 7.8 | 14.8 | 0.00 | 0.00 | 0.00 | 24 | 1002.5 |
| 20260505204507 | 91 | 241 | 8.7 | 14.8 | 0.00 | 0.00 | 0.00 | 24 | 1002.7 |
| 20260505203005 | 91 | 253 | 13.0 | 19.1 | 0.00 | 0.00 | 0.00 | 23 | 1002.9 |
| 20260505201507 | 91 | 267 | 9.6 | 13.9 | 0.00 | 0.00 | 0.00 | 24 | 1003.0 |
| 20260505200005 | 91 | 252 | 8.7 | 16.5 | 0.00 | 0.00 | 0.00 | 23 | 1002.9 |
| 20260505194614 | 90 | 267 | 9.6 | 14.8 | 0.00 | 0.00 | 0.00 | 24 | 1003.0 |
| 20260505193058 | 90 | 221 | 5.2 | 14.8 | 0.00 | 0.00 | 0.00 | 27 | 1003.3 |
| 20260505191559 | 89 | 242 | 8.7 | 12.2 | 0.00 | 0.00 | 0.00 | 26 | 1003.3 |
| 20260505190054 | 89 | 275 | 5.2 | 13.0 | 0.00 | 0.00 | 0.00 | 28 | 1003.3 |
| 20260505184551 | 89 | 251 | 4.3 | 8.7 | 0.00 | 0.00 | 0.00 | 31 | 1003.6 |
| 20260505183057 | 87 | 246 | 6.1 | 13.0 | 0.00 | 0.00 | 0.00 | 33 | 1003.8 |
| 20260505181545 | 87 | 275 | 4.3 | 9.6 | 0.00 | 0.00 | 0.00 | 37 | 1003.8 |
| 20260505180042 | 86 | 246 | 6.1 | 10.4 | 0.00 | 0.00 | 0.00 | 39 | 1004.2 |
| 20260505174546 | 85 | 252 | 7.8 | 13.0 | 0.00 | 0.00 | 0.00 | 40 | 1004.4 |
| 20260505173043 | 84 | 243 | 7.8 | 13.0 | 0.00 | 0.00 | 0.00 | 44 | 1004.3 |
| 20260505171534 | 83 | 249 | 7.8 | 13.0 | 0.00 | 0.00 | 0.00 | 44 | 1004.4 |
| 20260505170033 | 82 | 247 | 9.6 | 12.2 | 0.00 | 0.00 | 0.00 | 47 | 1004.3 |
| 20260505164544 | 82 | 246 | 7.8 | 13.9 | 0.00 | 0.00 | 0.00 | 51 | 1004.3 |
| 20260505163023 | 81 | 250 | 7.0 | 15.6 | 0.00 | 0.00 | 0.00 | 54 | 1004.4 |
| 20260505161521 | 80 | 235 | 7.8 | 12.2 | 0.00 | 0.00 | 0.00 | 57 | 1004.3 |
| 20260505153012 | 77 | 266 | 7.0 | 11.3 | 0.00 | 0.00 | 0.00 | 67 | 1004.4 |
| 20260505151506 | 75 | 213 | 7.0 | 12.2 | 0.00 | 0.00 | 0.00 | 71 | 1004.1 |
| 20260505140108 | 71 | 200 | 10.4 | 18.2 | 0.00 | 0.00 | 0.00 | 77 | 1003.8 |
| 20260505124547 | 69 | 175 | 7.0 | 16.5 | 0.00 | 0.00 | 0.00 | 81 | 1003.6 |
| 20260505123043 | 69 | 223 | 8.7 | 14.8 | 0.00 | 0.00 | 0.00 | 81 | 1003.3 |
| 20260505121538 | 69 | 200 | 7.0 | 14.8 | 0.00 | 0.00 | 0.00 | 81 | 1003.3 |
| 20260505120033 | 68 | 238 | 5.2 | 8.7 | 0.00 | 0.00 | 0.00 | 81 | 1003.4 |
| 20260505114538 | 68 | 235 | 6.1 | 12.2 | 0.00 | 0.00 | 0.00 | 81 | 1003.2 |
| 20260505113031 | 68 | 223 | 6.1 | 10.4 | 0.00 | 0.00 | 0.00 | 81 | 1003.0 |
| 20260505111535 | 68 | 234 | 2.6 | 7.8 | 0.00 | 0.00 | 0.00 | 80 | 1003.0 |